Time,TemperatureF,DewpointF,PressureIn,WindDirection,WindDirectionDegrees,WindSpeedMPH,WindSpeedGustMPH,Humidity,HourlyPrecipIn,Conditions,Clouds,dailyrainin,SoftwareType,DateUTC
2013-05-06 00:02:00,76.3,55.2,28.85,WNW,292,0.0,0.0,48,0.00,,,0.00,open2300-1.11,2013-05-05 21:02:00,
2013-05-06 00:07:00,76.1,55.0,28.85,WNW,292,0.0,0.0,48,0.00,,,0.00,open2300-1.11,2013-05-05 21:07:00,
2013-05-06 00:13:00,76.1,55.0,28.85,WNW,292,0.0,0.0,48,0.00,,,0.00,open2300-1.11,2013-05-05 21:13:00,
2013-05-06 00:22:00,75.9,55.4,28.85,WNW,292,0.0,0.0,49,0.00,,,0.00,open2300-1.11,2013-05-05 21:22:00,
2013-05-06 00:27:00,75.7,55.3,28.85,WNW,292,0.0,0.0,49,0.00,,,0.00,open2300-1.11,2013-05-05 21:27:00,
2013-05-06 00:37:00,75.6,55.1,28.85,WNW,292,0.0,0.0,49,0.00,,,0.00,open2300-1.11,2013-05-05 21:37:00,
2013-05-06 00:42:00,75.6,55.1,28.85,WNW,292,0.0,0.0,49,0.00,,,0.00,open2300-1.11,2013-05-05 21:42:00,
2013-05-06 00:47:00,75.4,55.0,28.84,WNW,292,0.0,0.0,49,0.00,,,0.00,open2300-1.11,2013-05-05 21:47:00,
2013-05-06 00:57:00,75.2,54.8,28.85,WNW,292,0.0,0.0,49,0.00,,,0.00,open2300-1.11,2013-05-05 21:57:00,
2013-05-06 01:02:00,75.0,54.6,28.84,WNW,292,0.0,0.0,49,0.00,,,0.00,open2300-1.11,2013-05-05 22:02:00,
2013-05-06 01:12:00,75.0,54.6,28.85,WNW,292,0.0,0.0,49,0.00,,,0.00,open2300-1.11,2013-05-05 22:12:00,
2013-05-06 01:19:00,75.0,54.6,28.84,WNW,292,0.0,0.0,49,0.00,,,0.00,open2300-1.11,2013-05-05 22:19:00,
2013-05-06 01:27:00,75.0,54.6,28.84,WNW,292,0.0,0.0,49,0.00,,,0.00,open2300-1.11,2013-05-05 22:27:00,
2013-05-06 01:32:00,74.8,54.4,28.83,WNW,292,0.0,0.0,49,0.00,,,0.00,open2300-1.11,2013-05-05 22:32:00,
2013-05-06 01:37:00,74.8,54.4,28.83,WNW,292,0.0,0.0,49,0.00,,,0.00,open2300-1.11,2013-05-05 22:37:00,
2013-05-06 01:42:00,74.5,54.1,28.83,WNW,292,0.0,0.0,49,0.00,,,0.00,open2300-1.11,2013-05-05 22:42:00,
2013-05-06 01:47:00,74.5,54.1,28.83,WNW,292,0.0,0.0,49,0.00,,,0.00,open2300-1.11,2013-05-05 22:47:00,
2013-05-06 01:52:00,74.5,53.5,28.83,WNW,292,0.0,0.0,48,0.00,,,0.00,open2300-1.11,2013-05-05 22:52:00,
2013-05-06 02:02:00,74.3,53.3,28.82,WNW,292,0.0,0.0,48,0.00,,,0.00,open2300-1.11,2013-05-05 23:02:00,
2013-05-06 02:07:00,74.1,53.1,28.82,WNW,292,0.0,0.0,48,0.00,,,0.00,open2300-1.11,2013-05-05 23:07:00,
2013-05-06 02:17:00,74.1,52.5,28.82,WNW,292,0.0,0.0,47,0.00,,,0.00,open2300-1.11,2013-05-05 23:17:00,
2013-05-06 02:22:00,74.1,52.5,28.83,WNW,292,0.0,0.0,47,0.00,,,0.00,open2300-1.11,2013-05-05 23:22:00,
2013-05-06 02:32:00,73.9,52.3,28.82,NNW,337,0.0,0.0,47,0.00,,,0.00,open2300-1.11,2013-05-05 23:32:00,
2013-05-06 02:37:00,73.9,52.3,28.82,NNW,337,0.0,0.0,47,0.00,,,0.00,open2300-1.11,2013-05-05 23:37:00,
2013-05-06 02:47:00,73.9,52.3,28.81,NNW,337,0.0,0.0,47,0.00,,,0.00,open2300-1.11,2013-05-05 23:47:00,
2013-05-06 02:53:00,73.9,52.3,28.81,NNW,337,0.0,0.0,47,0.00,,,0.00,open2300-1.11,2013-05-05 23:53:00,
2013-05-06 03:02:00,73.9,52.3,28.82,NNW,337,0.0,0.0,47,0.00,,,0.00,open2300-1.11,2013-05-06 00:02:00,
2013-05-06 03:12:00,73.8,52.2,28.82,NNW,337,0.0,0.0,47,0.00,,,0.00,open2300-1.11,2013-05-06 00:12:00,
2013-05-06 03:22:00,73.6,52.0,28.81,NNE,22,0.0,0.0,47,0.00,,,0.00,open2300-1.11,2013-05-06 00:22:00,
2013-05-06 03:27:00,73.6,52.0,28.81,NNE,22,0.0,0.0,47,0.00,,,0.00,open2300-1.11,2013-05-06 00:27:00,
2013-05-06 03:32:00,73.6,52.0,28.81,NNE,22,0.0,0.0,47,0.00,,,0.00,open2300-1.11,2013-05-06 00:32:00,
2013-05-06 03:37:00,73.6,52.0,28.81,NNE,22,0.0,0.0,47,0.00,,,0.00,open2300-1.11,2013-05-06 00:37:00,
2013-05-06 03:47:00,73.2,52.2,28.81,NNE,22,0.0,0.0,48,0.00,,,0.00,open2300-1.11,2013-05-06 00:47:00,
2013-05-06 03:52:00,73.2,52.2,28.81,NNE,22,0.0,0.0,48,0.00,,,0.00,open2300-1.11,2013-05-06 00:52:00,
2013-05-06 03:57:00,73.0,52.1,28.81,NNE,22,0.0,0.0,48,0.00,,,0.00,open2300-1.11,2013-05-06 00:57:00,
2013-05-06 04:07:00,73.0,52.1,28.81,NNE,22,0.0,0.0,48,0.00,,,0.00,open2300-1.11,2013-05-06 01:07:00,
2013-05-06 04:12:00,73.0,52.1,28.81,NNE,22,0.0,0.0,48,0.00,,,0.00,open2300-1.11,2013-05-06 01:12:00,
2013-05-06 04:22:00,72.9,51.9,28.81,NNE,22,0.0,0.0,48,0.00,,,0.00,open2300-1.11,2013-05-06 01:22:00,
2013-05-06 04:32:00,72.7,52.4,28.80,NNE,22,0.0,0.0,49,0.00,,,0.00,open2300-1.11,2013-05-06 01:32:00,
2013-05-06 04:42:00,72.7,52.4,28.80,NNE,22,0.0,0.0,49,0.00,,,0.00,open2300-1.11,2013-05-06 01:42:00,
2013-05-06 04:47:00,72.7,52.4,28.80,NNE,22,0.0,0.0,49,0.00,,,0.00,open2300-1.11,2013-05-06 01:47:00,
2013-05-06 04:52:00,72.5,52.2,28.80,NNE,22,0.0,0.0,49,0.00,,,0.00,open2300-1.11,2013-05-06 01:52:00,
2013-05-06 04:57:00,72.5,52.8,28.80,NNE,22,0.0,0.0,50,0.00,,,0.00,open2300-1.11,2013-05-06 01:57:00,
2013-05-06 05:02:00,72.3,52.6,28.80,NNE,22,0.0,0.0,50,0.00,,,0.00,open2300-1.11,2013-05-06 02:02:00,
2013-05-06 05:12:00,72.5,52.8,28.80,NNE,22,0.0,0.0,50,0.00,,,0.00,open2300-1.11,2013-05-06 02:12:00,
2013-05-06 05:17:00,72.5,52.8,28.80,NNE,22,0.0,0.0,50,0.00,,,0.00,open2300-1.11,2013-05-06 02:17:00,
2013-05-06 05:27:00,72.3,53.1,28.80,NNE,22,0.0,0.0,51,0.00,,,0.00,open2300-1.11,2013-05-06 02:27:00,
2013-05-06 05:32:00,72.3,53.1,28.80,NNE,22,0.0,0.0,51,0.00,,,0.00,open2300-1.11,2013-05-06 02:32:00,
2013-05-06 05:42:00,72.3,53.1,28.80,NNE,22,0.0,0.0,51,0.00,,,0.00,open2300-1.11,2013-05-06 02:42:00,
2013-05-06 05:47:00,72.3,53.6,28.80,NNE,22,0.0,0.0,52,0.00,,,0.00,open2300-1.11,2013-05-06 02:47:00,
2013-05-06 05:57:00,72.3,53.6,28.81,NNE,22,0.0,0.0,52,0.00,,,0.00,open2300-1.11,2013-05-06 02:57:00,
2013-05-06 06:02:00,72.1,53.5,28.81,North,0,3.8,3.8,52,0.00,,,0.00,open2300-1.11,2013-05-06 03:02:00,
2013-05-06 06:07:00,72.3,53.6,28.81,NNE,22,0.0,3.8,52,0.00,,,0.00,open2300-1.11,2013-05-06 03:07:00,
2013-05-06 06:17:00,72.1,54.0,28.82,North,0,0.0,0.0,53,0.00,,,0.00,open2300-1.11,2013-05-06 03:17:00,
2013-05-06 06:22:00,72.1,54.0,28.81,NE,45,0.0,0.0,53,0.00,,,0.00,open2300-1.11,2013-05-06 03:22:00,
2013-05-06 06:32:00,72.1,54.0,28.82,NNE,22,0.0,1.6,53,0.00,,,0.00,open2300-1.11,2013-05-06 03:32:00,
2013-05-06 06:37:00,72.1,54.0,28.82,NE,45,0.0,0.0,53,0.00,,,0.00,open2300-1.11,2013-05-06 03:37:00,
2013-05-06 06:47:00,72.1,54.0,28.82,NNE,22,0.0,0.0,53,0.00,,,0.00,open2300-1.11,2013-05-06 03:47:00,
2013-05-06 06:52:00,72.1,54.0,28.82,NNE,22,0.0,0.0,53,0.00,,,0.00,open2300-1.11,2013-05-06 03:52:00,
2013-05-06 06:57:00,72.0,53.8,28.81,NNE,22,0.0,0.0,53,0.00,,,0.00,open2300-1.11,2013-05-06 03:57:00,
2013-05-06 07:02:00,72.1,54.0,28.82,NNE,22,0.0,0.0,53,0.00,,,0.00,open2300-1.11,2013-05-06 04:02:00,
2013-05-06 07:07:00,72.1,54.0,28.83,NNE,22,0.0,0.0,53,0.00,,,0.00,open2300-1.11,2013-05-06 04:07:00,
2013-05-06 07:12:00,72.1,54.0,28.82,NNE,22,0.0,0.0,53,0.00,,,0.00,open2300-1.11,2013-05-06 04:12:00,
2013-05-06 07:17:00,72.1,54.5,28.83,NNE,22,0.0,0.0,54,0.00,,,0.00,open2300-1.11,2013-05-06 04:17:00,
2013-05-06 07:27:00,72.1,54.5,28.83,NNE,22,0.0,0.0,54,0.00,,,0.00,open2300-1.11,2013-05-06 04:27:00,
2013-05-06 07:32:00,72.1,54.5,28.84,NNE,22,0.0,0.0,54,0.00,,,0.00,open2300-1.11,2013-05-06 04:32:00,
2013-05-06 07:37:00,72.1,54.5,28.84,NNE,22,0.0,0.0,54,0.00,,,0.00,open2300-1.11,2013-05-06 04:37:00,
2013-05-06 07:42:00,72.1,54.5,28.84,NNE,22,0.0,0.0,54,0.00,,,0.00,open2300-1.11,2013-05-06 04:42:00,
2013-05-06 07:47:00,72.3,54.6,28.84,NNE,22,0.0,0.0,54,0.00,,,0.00,open2300-1.11,2013-05-06 04:47:00,
2013-05-06 07:53:00,72.3,54.6,28.84,NNE,22,0.0,0.0,54,0.00,,,0.00,open2300-1.11,2013-05-06 04:53:00,
2013-05-06 07:57:00,72.3,54.6,28.84,NNE,22,0.0,0.0,54,0.00,,,0.00,open2300-1.11,2013-05-06 04:57:00,
2013-05-06 08:07:00,72.7,55.0,28.85,NNE,22,0.0,0.0,54,0.00,,,0.00,open2300-1.11,2013-05-06 05:07:00,
2013-05-06 08:12:00,72.7,55.0,28.85,NNE,22,0.0,0.0,54,0.00,,,0.00,open2300-1.11,2013-05-06 05:12:00,
2013-05-06 08:22:00,73.0,55.3,28.85,NNE,22,0.0,0.0,54,0.00,,,0.00,open2300-1.11,2013-05-06 05:22:00,
2013-05-06 08:32:00,73.2,55.5,28.85,NNE,22,0.0,0.0,54,0.00,,,0.00,open2300-1.11,2013-05-06 05:32:00,
2013-05-06 08:42:00,73.2,55.5,28.85,NNE,22,0.0,0.0,54,0.00,,,0.00,open2300-1.11,2013-05-06 05:42:00,
2013-05-06 08:47:00,73.6,55.3,28.85,NNE,22,0.0,0.0,53,0.00,,,0.00,open2300-1.11,2013-05-06 05:47:00,
2013-05-06 08:57:00,73.8,55.5,28.85,NE,45,0.0,0.0,53,0.00,,,0.00,open2300-1.11,2013-05-06 05:57:00,
2013-05-06 09:02:00,73.9,55.7,28.85,NNE,22,0.0,4.5,53,0.00,,,0.00,open2300-1.11,2013-05-06 06:02:00,
2013-05-06 09:07:00,74.1,55.8,28.85,NE,45,1.6,3.4,53,0.00,,,0.00,open2300-1.11,2013-05-06 06:07:00,
2013-05-06 09:17:00,74.3,55.5,28.85,NNE,22,2.2,2.5,52,0.00,,,0.00,open2300-1.11,2013-05-06 06:17:00,
2013-05-06 09:22:00,74.5,55.7,28.85,NE,45,0.0,2.2,52,0.00,,,0.00,open2300-1.11,2013-05-06 06:22:00,
2013-05-06 09:27:00,74.5,55.7,28.85,NNE,22,1.3,1.3,52,0.00,,,0.00,open2300-1.11,2013-05-06 06:27:00,
2013-05-06 09:32:00,74.8,56.0,28.85,NNE,22,0.2,1.3,52,0.00,,,0.00,open2300-1.11,2013-05-06 06:32:00,
2013-05-06 09:37:00,74.8,56.0,28.85,North,0,0.0,0.2,52,0.00,,,0.00,open2300-1.11,2013-05-06 06:37:00,
2013-05-06 09:42:00,75.0,56.2,28.85,NE,45,0.0,0.0,52,0.00,,,0.00,open2300-1.11,2013-05-06 06:42:00,
2013-05-06 09:48:00,75.0,55.7,28.85,NNE,22,0.0,0.0,51,0.00,,,0.00,open2300-1.11,2013-05-06 06:48:00,
2013-05-06 09:57:00,75.4,56.1,28.85,NNE,22,0.0,1.8,51,0.00,,,0.00,open2300-1.11,2013-05-06 06:57:00,
2013-05-06 10:07:00,75.7,56.4,28.85,NNE,22,1.6,1.6,51,0.00,,,0.00,open2300-1.11,2013-05-06 07:07:00,
2013-05-06 10:17:00,75.9,56.5,28.85,NNE,22,4.7,4.7,51,0.00,,,0.00,open2300-1.11,2013-05-06 07:17:00,
2013-05-06 10:27:00,76.1,56.2,28.85,NE,45,0.0,0.7,50,0.00,,,0.00,open2300-1.11,2013-05-06 07:27:00,
2013-05-06 10:37:00,76.5,55.9,28.85,NE,45,0.7,2.5,49,0.00,,,0.00,open2300-1.11,2013-05-06 07:37:00,
2013-05-06 10:42:00,76.5,55.3,28.85,NE,45,0.0,0.7,48,0.00,,,0.00,open2300-1.11,2013-05-06 07:42:00,
2013-05-06 10:47:00,76.8,55.6,28.85,NNE,22,0.0,0.0,48,0.00,,,0.00,open2300-1.11,2013-05-06 07:47:00,
2013-05-06 10:57:00,76.8,55.0,28.85,NE,45,0.4,4.0,47,0.00,,,0.00,open2300-1.11,2013-05-06 07:57:00,
2013-05-06 11:02:00,77.0,54.6,28.85,NE,45,0.0,1.6,46,0.00,,,0.00,open2300-1.11,2013-05-06 08:02:00,
2013-05-06 11:12:00,77.4,54.9,28.85,NE,45,0.0,4.2,46,0.00,,,0.00,open2300-1.11,2013-05-06 08:12:00,
2013-05-06 11:17:00,77.4,54.9,28.86,NNW,337,0.0,2.5,46,0.00,,,0.00,open2300-1.11,2013-05-06 08:17:00,
2013-05-06 11:22:00,77.4,54.3,28.86,NNE,22,0.0,6.0,45,0.00,,,0.00,open2300-1.11,2013-05-06 08:22:00,
2013-05-06 11:32:00,77.5,54.5,28.86,NNE,22,0.0,5.4,45,0.00,,,0.00,open2300-1.11,2013-05-06 08:32:00,
2013-05-06 11:37:00,77.5,54.5,28.86,NE,45,0.0,0.0,45,0.00,,,0.00,open2300-1.11,2013-05-06 08:37:00,
2013-05-06 11:44:00,77.5,54.5,28.87,NNE,22,4.9,4.9,45,0.00,,,0.00,open2300-1.11,2013-05-06 08:44:00,
2013-05-06 11:52:00,77.7,54.0,28.86,NE,45,0.0,0.0,44,0.00,,,0.00,open2300-1.11,2013-05-06 08:52:00,
2013-05-06 11:57:00,77.9,54.8,28.86,NE,45,2.5,2.5,45,0.00,,,0.00,open2300-1.11,2013-05-06 08:57:00,
2013-05-06 12:02:00,78.1,54.3,28.86,NE,45,3.4,3.4,44,0.00,,,0.00,open2300-1.11,2013-05-06 09:02:00,
2013-05-06 12:12:00,78.1,54.3,28.86,NE,45,0.0,6.0,44,0.00,,,0.00,open2300-1.11,2013-05-06 09:12:00,
2013-05-06 12:17:00,78.1,54.3,28.86,NE,45,0.0,0.0,44,0.00,,,0.00,open2300-1.11,2013-05-06 09:17:00,
2013-05-06 12:22:00,78.4,54.6,28.86,NNE,22,0.0,4.9,44,0.00,,,0.00,open2300-1.11,2013-05-06 09:22:00,
2013-05-06 12:32:00,78.6,54.8,28.86,NE,45,0.0,3.6,44,0.00,,,0.00,open2300-1.11,2013-05-06 09:32:00,
2013-05-06 12:37:00,78.8,55.0,28.86,NE,45,4.2,4.2,44,0.00,,,0.00,open2300-1.11,2013-05-06 09:37:00,
2013-05-06 12:47:00,79.0,55.1,28.85,NE,45,0.0,2.5,44,0.00,,,0.00,open2300-1.11,2013-05-06 09:47:00,
2013-05-06 12:52:00,79.0,55.1,28.85,NNE,22,4.9,4.9,44,0.00,,,0.00,open2300-1.11,2013-05-06 09:52:00,
2013-05-06 13:02:00,79.2,54.7,28.86,NE,45,0.0,7.8,43,0.00,,,0.00,open2300-1.11,2013-05-06 10:02:00,
2013-05-06 13:07:00,79.3,54.8,28.86,NNE,22,0.0,0.0,43,0.00,,,0.00,open2300-1.11,2013-05-06 10:07:00,
2013-05-06 13:17:00,79.9,55.3,28.85,NE,45,6.7,6.7,43,0.00,,,0.00,open2300-1.11,2013-05-06 10:17:00,
2013-05-06 13:22:00,80.1,55.5,28.85,NNE,22,3.6,6.7,43,0.00,,,0.00,open2300-1.11,2013-05-06 10:22:00,
2013-05-06 13:28:00,80.4,55.2,28.85,NE,45,1.3,3.6,42,0.00,,,0.00,open2300-1.11,2013-05-06 10:28:00,
2013-05-06 13:37:00,80.8,55.5,28.85,NNE,22,3.6,3.8,42,0.00,,,0.00,open2300-1.11,2013-05-06 10:37:00,
2013-05-06 13:42:00,81.0,55.1,28.85,NNE,22,2.7,3.8,41,0.00,,,0.00,open2300-1.11,2013-05-06 10:42:00,
2013-05-06 13:52:00,81.5,55.6,28.85,NNE,22,0.0,0.7,41,0.00,,,0.00,open2300-1.11,2013-05-06 10:52:00,
2013-05-06 13:57:00,82.0,55.4,28.85,SSE,157,0.0,0.0,40,0.00,,,0.00,open2300-1.11,2013-05-06 10:57:00,
2013-05-06 14:02:00,82.2,55.6,28.85,NNE,22,0.0,5.6,40,0.00,,,0.00,open2300-1.11,2013-05-06 11:02:00,
2013-05-06 14:07:00,82.8,55.3,28.85,NNE,22,4.9,4.9,39,0.00,,,0.00,open2300-1.11,2013-05-06 11:07:00,
2013-05-06 14:12:00,82.8,55.3,28.84,North,0,6.0,6.0,39,0.00,,,0.00,open2300-1.11,2013-05-06 11:12:00,
2013-05-06 14:22:00,83.1,55.6,28.85,NE,45,0.0,2.0,39,0.00,,,0.00,open2300-1.11,2013-05-06 11:22:00,
2013-05-06 14:27:00,83.3,55.0,28.85,NE,45,0.0,2.7,38,0.00,,,0.00,open2300-1.11,2013-05-06 11:27:00,
2013-05-06 14:37:00,83.5,55.2,28.85,NE,45,0.0,5.8,38,0.00,,,0.00,open2300-1.11,2013-05-06 11:37:00,
2013-05-06 14:42:00,83.5,54.4,28.84,NNE,22,6.3,6.3,37,0.00,,,0.00,open2300-1.11,2013-05-06 11:42:00,
2013-05-06 14:47:00,83.5,54.4,28.84,NE,45,0.0,6.3,37,0.00,,,0.00,open2300-1.11,2013-05-06 11:47:00,
2013-05-06 14:57:00,83.1,54.0,28.84,NE,45,2.7,2.7,37,0.00,,,0.00,open2300-1.11,2013-05-06 11:57:00,
2013-05-06 15:02:00,83.1,54.0,28.84,NE,45,1.8,2.7,37,0.00,,,0.00,open2300-1.11,2013-05-06 12:02:00,
2013-05-06 15:12:00,83.3,53.4,28.84,NNE,22,1.6,4.7,36,0.00,,,0.00,open2300-1.11,2013-05-06 12:12:00,
2013-05-06 15:17:00,83.3,53.4,28.84,NE,45,2.5,2.5,36,0.00,,,0.00,open2300-1.11,2013-05-06 12:17:00,
2013-05-06 15:27:00,83.5,52.8,28.84,NNE,22,3.4,6.0,35,0.00,,,0.00,open2300-1.11,2013-05-06 12:27:00,
2013-05-06 15:32:00,83.3,52.6,28.84,NNE,22,0.0,6.0,35,0.00,,,0.00,open2300-1.11,2013-05-06 12:32:00,
2013-05-06 15:42:00,83.8,53.1,28.83,NE,45,1.1,1.1,35,0.00,,,0.00,open2300-1.11,2013-05-06 12:42:00,
2013-05-06 15:47:00,84.0,53.3,28.83,NNE,22,5.1,5.1,35,0.00,,,0.00,open2300-1.11,2013-05-06 12:47:00,
2013-05-06 15:57:00,84.7,53.9,28.82,NE,45,0.0,6.5,35,0.00,,,0.00,open2300-1.11,2013-05-06 12:57:00,
2013-05-06 16:02:00,84.7,53.9,28.82,NNE,22,0.0,0.0,35,0.00,,,0.00,open2300-1.11,2013-05-06 13:02:00,
2013-05-06 16:12:00,85.5,53.8,28.82,NNW,337,4.2,4.7,34,0.00,,,0.00,open2300-1.11,2013-05-06 13:12:00,
2013-05-06 16:17:00,85.6,53.9,28.81,North,0,0.0,4.2,34,0.00,,,0.00,open2300-1.11,2013-05-06 13:17:00,
2013-05-06 16:27:00,86.0,54.2,28.81,NNE,22,3.1,3.1,34,0.00,,,0.00,open2300-1.11,2013-05-06 13:27:00,
2013-05-06 16:33:00,86.2,54.4,28.82,NE,45,0.0,3.1,34,0.00,,,0.00,open2300-1.11,2013-05-06 13:33:00,
2013-05-06 16:42:00,86.4,53.7,28.81,NNE,22,0.0,1.1,33,0.00,,,0.00,open2300-1.11,2013-05-06 13:42:00,
2013-05-06 16:47:00,86.4,53.7,28.82,North,0,2.9,3.1,33,0.00,,,0.00,open2300-1.11,2013-05-06 13:47:00,
2013-05-06 16:57:00,86.2,53.6,28.81,NNE,22,2.9,2.9,33,0.00,,,0.00,open2300-1.11,2013-05-06 13:57:00,
2013-05-06 17:02:00,86.4,53.0,28.81,NE,45,0.0,2.9,32,0.00,,,0.00,open2300-1.11,2013-05-06 14:02:00,
2013-05-06 17:12:00,86.7,53.2,28.81,NNE,22,3.4,3.4,32,0.00,,,0.00,open2300-1.11,2013-05-06 14:12:00,
2013-05-06 17:17:00,86.9,52.6,28.81,NE,45,2.9,3.4,31,0.00,,,0.00,open2300-1.11,2013-05-06 14:17:00,
2013-05-06 17:22:00,87.1,51.9,28.80,NNE,22,7.4,7.4,30,0.00,,,0.00,open2300-1.11,2013-05-06 14:22:00,
2013-05-06 17:32:00,87.4,53.0,28.80,NE,45,4.0,4.0,31,0.00,,,0.00,open2300-1.11,2013-05-06 14:32:00,
2013-05-06 17:37:00,87.3,52.1,28.80,NE,45,0.0,4.0,30,0.00,,,0.00,open2300-1.11,2013-05-06 14:37:00,
2013-05-06 17:47:00,86.7,51.7,28.79,NE,45,0.0,0.0,30,0.00,,,0.00,open2300-1.11,2013-05-06 14:47:00,
2013-05-06 17:52:00,86.5,51.5,28.79,NE,45,0.0,0.7,30,0.00,,,0.00,open2300-1.11,2013-05-06 14:52:00,
2013-05-06 18:02:00,86.2,51.2,28.79,NE,45,0.0,3.6,30,0.00,,,0.00,open2300-1.11,2013-05-06 15:02:00,
2013-05-06 18:07:00,86.2,52.0,28.79,NNE,22,0.0,0.0,31,0.00,,,0.00,open2300-1.11,2013-05-06 15:07:00,
2013-05-06 18:17:00,86.7,52.5,28.78,NNE,22,0.0,0.0,31,0.00,,,0.00,open2300-1.11,2013-05-06 15:17:00,
2013-05-06 18:22:00,86.7,51.7,28.78,NNE,22,1.1,1.1,30,0.00,,,0.00,open2300-1.11,2013-05-06 15:22:00,
2013-05-06 18:32:00,86.2,51.2,28.79,NE,45,0.0,0.0,30,0.00,,,0.00,open2300-1.11,2013-05-06 15:32:00,
2013-05-06 18:39:00,85.8,51.7,28.79,NNE,22,2.7,2.7,31,0.00,,,0.00,open2300-1.11,2013-05-06 15:39:00,
2013-05-06 18:47:00,85.5,52.2,28.78,NNE,22,0.0,4.5,32,0.00,,,0.00,open2300-1.11,2013-05-06 15:47:00,
2013-05-06 18:52:00,85.6,52.3,28.78,NNE,22,0.0,0.0,32,0.00,,,0.00,open2300-1.11,2013-05-06 15:52:00,
2013-05-06 18:57:00,85.3,52.0,28.79,NNE,22,0.0,0.0,32,0.00,,,0.00,open2300-1.11,2013-05-06 15:57:00,
2013-05-06 19:07:00,84.7,51.5,28.79,NNE,22,2.5,2.5,32,0.00,,,0.00,open2300-1.11,2013-05-06 16:07:00,
2013-05-06 19:12:00,84.0,50.9,28.79,NE,45,0.0,2.5,32,0.00,,,0.00,open2300-1.11,2013-05-06 16:12:00,
2013-05-06 19:22:00,83.3,51.0,28.79,NE,45,3.4,3.4,33,0.00,,,0.00,open2300-1.11,2013-05-06 16:22:00,
2013-05-06 19:27:00,82.6,51.2,28.79,NNE,22,0.0,3.4,34,0.00,,,0.00,open2300-1.11,2013-05-06 16:27:00,
2013-05-06 19:32:00,82.0,50.7,28.79,NNE,22,0.0,0.0,34,0.00,,,0.00,open2300-1.11,2013-05-06 16:32:00,
2013-05-06 19:42:00,81.0,50.6,28.79,NE,45,0.0,1.3,35,0.00,,,0.00,open2300-1.11,2013-05-06 16:42:00,
2013-05-06 19:47:00,80.4,50.1,28.79,NE,45,0.0,0.0,35,0.00,,,0.00,open2300-1.11,2013-05-06 16:47:00,
2013-05-06 19:52:00,79.7,50.2,28.80,NNE,22,0.9,0.9,36,0.00,,,0.00,open2300-1.11,2013-05-06 16:52:00,
2013-05-06 20:02:00,79.0,49.6,28.80,NNE,22,0.0,0.0,36,0.00,,,0.00,open2300-1.11,2013-05-06 17:02:00,
2013-05-06 20:07:00,78.6,49.3,28.79,NE,45,1.8,1.8,36,0.00,,,0.00,open2300-1.11,2013-05-06 17:07:00,
2013-05-06 20:12:00,78.4,49.1,28.79,NNE,22,0.0,1.8,36,0.00,,,0.00,open2300-1.11,2013-05-06 17:12:00,
2013-05-06 20:22:00,77.7,48.5,28.79,NNE,22,6.7,6.7,36,0.00,,,0.00,open2300-1.11,2013-05-06 17:22:00,
2013-05-06 20:32:00,77.2,48.0,28.80,NNE,22,0.0,2.2,36,0.00,,,0.00,open2300-1.11,2013-05-06 17:32:00,
2013-05-06 20:42:00,76.6,48.3,28.81,NE,45,0.7,0.7,37,0.00,,,0.00,open2300-1.11,2013-05-06 17:42:00,
2013-05-06 20:47:00,76.5,48.9,28.82,NNE,22,1.3,1.3,38,0.00,,,0.00,open2300-1.11,2013-05-06 17:47:00,
2013-05-06 20:52:00,76.1,49.3,28.82,NE,45,0.0,3.6,39,0.00,,,0.00,open2300-1.11,2013-05-06 17:52:00,
2013-05-06 21:02:00,75.7,49.8,28.83,NNE,22,0.0,0.0,40,0.00,,,0.00,open2300-1.11,2013-05-06 18:02:00,
2013-05-06 21:07:00,75.6,50.8,28.83,NNE,22,2.5,2.5,42,0.00,,,0.00,open2300-1.11,2013-05-06 18:07:00,
2013-05-06 21:13:00,75.4,51.3,28.83,NE,45,0.0,2.5,43,0.00,,,0.00,open2300-1.11,2013-05-06 18:13:00,
2013-05-06 21:22:00,74.8,52.0,28.84,NNE,22,1.8,3.1,45,0.00,,,0.00,open2300-1.11,2013-05-06 18:22:00,
2013-05-06 21:27:00,74.8,52.0,28.84,NNE,22,2.9,2.9,45,0.00,,,0.00,open2300-1.11,2013-05-06 18:27:00,
2013-05-06 21:32:00,74.5,52.2,28.84,NE,45,0.0,2.9,46,0.00,,,0.00,open2300-1.11,2013-05-06 18:32:00,
2013-05-06 21:42:00,74.1,52.5,28.84,NNE,22,0.0,2.0,47,0.00,,,0.00,open2300-1.11,2013-05-06 18:42:00,
2013-05-06 21:47:00,74.1,52.5,28.84,NE,45,0.0,0.0,47,0.00,,,0.00,open2300-1.11,2013-05-06 18:47:00,
2013-05-06 21:53:00,73.9,52.9,28.84,NNE,22,0.0,0.0,48,0.00,,,0.00,open2300-1.11,2013-05-06 18:53:00,
2013-05-06 22:02:00,74.1,53.1,28.84,NNE,22,0.9,0.9,48,0.00,,,0.00,open2300-1.11,2013-05-06 19:02:00,
2013-05-06 22:07:00,74.1,52.5,28.84,NNE,22,0.0,0.9,47,0.00,,,0.00,open2300-1.11,2013-05-06 19:07:00,
2013-05-06 22:12:00,74.1,52.5,28.84,NNE,22,0.0,0.0,47,0.00,,,0.00,open2300-1.11,2013-05-06 19:12:00,
2013-05-06 22:17:00,74.1,52.5,28.83,NNE,22,0.0,0.0,47,0.00,,,0.00,open2300-1.11,2013-05-06 19:17:00,
2013-05-06 22:22:00,74.1,52.5,28.83,NNE,22,0.0,2.0,47,0.00,,,0.00,open2300-1.11,2013-05-06 19:22:00,
2013-05-06 22:27:00,74.1,51.9,28.83,NNE,22,0.0,0.0,46,0.00,,,0.00,open2300-1.11,2013-05-06 19:27:00,
2013-05-06 22:32:00,74.1,51.9,28.83,NNE,22,0.0,0.0,46,0.00,,,0.00,open2300-1.11,2013-05-06 19:32:00,
2013-05-06 22:37:00,74.1,51.9,28.82,NE,45,0.0,0.0,46,0.00,,,0.00,open2300-1.11,2013-05-06 19:37:00,
2013-05-06 22:47:00,74.1,51.3,28.82,NE,45,1.6,1.6,45,0.00,,,0.00,open2300-1.11,2013-05-06 19:47:00,
2013-05-06 22:57:00,74.1,51.3,28.81,NNE,22,0.0,2.5,45,0.00,,,0.00,open2300-1.11,2013-05-06 19:57:00,
2013-05-06 23:07:00,73.9,51.1,28.81,NNE,22,1.6,1.6,45,0.00,,,0.00,open2300-1.11,2013-05-06 20:07:00,
2013-05-06 23:12:00,73.9,51.1,28.81,NNE,22,0.0,1.6,45,0.00,,,0.00,open2300-1.11,2013-05-06 20:12:00,
2013-05-06 23:17:00,73.9,51.1,28.81,NNE,22,0.0,0.0,45,0.00,,,0.00,open2300-1.11,2013-05-06 20:17:00,
2013-05-06 23:27:00,73.9,51.1,28.80,NNE,22,0.0,0.0,45,0.00,,,0.00,open2300-1.11,2013-05-06 20:27:00,
2013-05-06 23:32:00,73.8,51.0,28.80,NNE,22,2.2,2.2,45,0.00,,,0.00,open2300-1.11,2013-05-06 20:32:00,
2013-05-06 23:37:00,73.6,51.4,28.80,NE,45,0.0,2.2,46,0.00,,,0.00,open2300-1.11,2013-05-06 20:37:00,
2013-05-06 23:47:00,73.6,52.0,28.80,NE,45,0.0,0.0,47,0.00,,,0.00,open2300-1.11,2013-05-06 20:47:00,
2013-05-06 23:52:00,73.6,52.0,28.80,NNE,22,0.0,2.5,47,0.00,,,0.00,open2300-1.11,2013-05-06 20:52:00,